[[{"header":{"parameterUnit":"m.s-1","parameterCategory":1,"la1":30.2992,"la2":30.254,"lo1":-89.0895,"lo2":-89.0443,"dy":0.0025,"dx":0.0025,"nx":19,"ny":19,"refTime":"2026-04-10T03:00:00:Z","depth":0,"parameterNumber":2,"parameterNumberName":"U-component_of_WINDS"},"data":[0,0,0,-1.988,-1.9881,-1.9894,-1.9894,-1.9944,-1.9945,0,0,0,0,0,0,0,0,0,0,0,-1.9896,-1.9897,-1.988,-1.9881,-1.9894,-1.9894,-1.9944,-1.9945,0,0,0,0,0,0,0,0,0,0,0,-1.9895,-1.9896,-1.9898,-1.9881,-1.9895,-1.9894,-1.9944,-1.9922,0,0,0,0,0,0,0,0,0,0,-1.9904,-1.9937,-1.9896,-1.9898,-1.9882,-1.9895,-1.9894,-1.9921,-1.9924,-1.9952,0,-1.9982,0,-1.9965,-1.9951,-1.9951,0,0,0,-1.9867,-1.9934,-1.9921,-1.9898,-1.9882,-1.9895,-1.9884,-1.9922,-1.9926,-1.9957,-1.9982,-1.9983,-1.9965,-1.9951,-1.9951,-2.0163,-2.0165,0,0,-1.9866,-1.9909,-1.9918,-1.9924,-1.9923,-1.9884,-1.9885,-1.9924,-1.9955,-1.9983,-1.9984,-1.9966,-1.9952,-1.9952,-2.0161,-2.0163,0,0,0,-1.9874,-1.9909,-1.9893,-1.9923,-1.9922,-1.9885,-1.9886,-1.9953,-1.9945,-1.9984,-1.9967,-1.9952,-1.9953,-2.0159,-2.0162,-2.0287,0,0,0,-1.9873,-1.9913,-1.9894,-1.992,-1.9922,-1.9938,-1.9916,-1.9942,-1.9945,-1.9967,-1.9952,-1.9954,-2.0157,-2.0161,-2.0279,-2.0339,0,0,0,-1.9888,-1.9914,-1.9923,-1.9922,-1.9929,-1.9936,-1.9929,-1.9942,-1.9935,-1.9951,-1.9954,-2.0156,-2.016,-2.0272,-2.0328,-2.0409,0,0,0,-1.9917,-2.0032,-1.9926,-2.0047,-1.9929,-2.0012,-1.9929,-1.9988,-2.0016,-1.9953,-2.0158,-2.0162,-2.027,-2.0321,-2.0402,-2.0487,-2.0525,0,0,-2.0086,-2.0054,-2.0122,-2.0027,-2.0141,-2.0007,-2.0138,-2.0124,-2.0086,-2.014,-2.0144,-2.0282,-2.0327,-2.0408,-2.0722,-2.0753,0,0,0,-2.0191,-2.0241,-2.0261,-2.029,-2.0282,-2.028,-2.0241,-2.0236,-2.0279,-2.0122,-2.033,-2.0356,-2.0401,-2.044,-2.0466,-2.0504,-2.0181,-2.018,-2.018,-2.0492,-2.0438,-2.0548,-2.0497,-2.0526,-2.0484,-2.0504,-2.049,-2.0426,-2.0476,-2.0493,-2.069,-2.0737,-2.0756,-2.0796,-2.053,-2.0531,-2.0531,-2.0532,-2.0737,-2.08,-2.0713,-2.0789,-2.0732,-2.0796,-2.0761,-2.0714,-2.0766,-2.0672,-2.071,-2.0615,-2.0792,-2.0824,-2.0541,-2.0539,-2.0538,-2.0537,-2.0536,-2.093,-2.0951,-2.0943,-2.098,-2.1015,-2.0958,-2.1012,-2.0957,-2.0906,-2.0943,-2.0956,-2.0954,-2.0947,-2.0952,-2.0953,-2.0954,-2.0954,-2.0955,-2.0955,-2.1136,-2.1122,-2.1174,-2.1176,-2.1188,-2.1197,-2.1157,-2.1168,-2.1166,-2.1122,-2.1122,-2.1056,-2.0818,-2.0761,-2.0966,-2.0964,-2.0962,-2.0961,-2.0961,-2.1409,-2.1338,-2.142,-2.1432,-2.143,-2.147,-2.1399,-2.1426,-2.1426,-2.1456,-2.1381,-2.1213,-2.1176,-2.1155,-2.1108,-2.139,-2.139,-2.139,-2.139,-2.1574,-2.155,-2.1622,-2.1646,-2.1662,-2.1607,-2.1702,-2.1673,-2.1632,-2.163,-2.158,-2.1512,-2.1492,-2.1467,-2.1439,-2.1395,-2.1743,-2.1744,-2.1744,-2.1741,-2.1715,-2.1808,-2.1766,-2.176,-2.1758,-2.1847,-2.1879,-2.1817,-2.1757,-2.1627,-2.1612,-2.1501,-2.1467,-2.1407,-2.1365,-2.1281,0,0]},{"header":{"parameterUnit":"m.s-1","parameterCategory":1,"la1":30.2992,"la2":30.254,"lo1":-89.0895,"lo2":-89.0443,"dy":0.0025,"dx":0.0025,"nx":19,"ny":19,"refTime":"2026-04-10T03:00:00:Z","depth":0,"parameterNumber":3,"parameterNumberName":"V-component_of_WINDS"},"data":[0,0,0,-2.9244,-2.9245,-2.9273,-2.9273,-2.9326,-2.9327,0,0,0,0,0,0,0,0,0,0,0,-2.9247,-2.9247,-2.9244,-2.9245,-2.9273,-2.9273,-2.9326,-2.9327,0,0,0,0,0,0,0,0,0,0,0,-2.9246,-2.9247,-2.9248,-2.9245,-2.9273,-2.9273,-2.9326,-2.9298,0,0,0,0,0,0,0,0,0,0,-2.9268,-2.9282,-2.9247,-2.9248,-2.9245,-2.9273,-2.9273,-2.9297,-2.93,-2.9321,0,-2.9343,0,-2.9336,-2.9332,-2.9332,0,0,0,-2.9236,-2.9279,-2.9277,-2.9248,-2.9246,-2.9273,-2.9258,-2.9298,-2.9302,-2.9326,-2.9344,-2.9345,-2.9337,-2.9332,-2.9333,-2.9483,-2.9484,0,0,-2.9235,-2.9258,-2.9274,-2.928,-2.9277,-2.9257,-2.9259,-2.9301,-2.9322,-2.9344,-2.9346,-2.9338,-2.9333,-2.9333,-2.9482,-2.9483,0,0,0,-2.9236,-2.9257,-2.9253,-2.9278,-2.9282,-2.9258,-2.926,-2.932,-2.9317,-2.9347,-2.9339,-2.9333,-2.9334,-2.948,-2.9482,-2.9559,0,0,0,-2.9235,-2.9257,-2.9253,-2.9267,-2.9281,-2.9301,-2.9279,-2.9314,-2.9318,-2.9338,-2.9333,-2.9335,-2.9479,-2.9481,-2.9554,-2.9591,0,0,0,-2.9241,-2.9258,-2.9266,-2.9268,-2.9281,-2.93,-2.9299,-2.9314,-2.9313,-2.9332,-2.9335,-2.9478,-2.9481,-2.955,-2.9584,-2.9637,0,0,0,-2.9254,-2.9334,-2.9268,-2.9353,-2.9281,-2.9348,-2.9299,-2.9347,-2.9372,-2.9333,-2.9479,-2.9482,-2.9548,-2.958,-2.9633,-2.9686,-2.9711,0,0,-2.9367,-2.9348,-2.9397,-2.9338,-2.9422,-2.9341,-2.9436,-2.9437,-2.9418,-2.9462,-2.9465,-2.9556,-2.9584,-2.9636,-2.9839,-2.9859,0,0,0,-2.944,-2.9475,-2.9493,-2.9518,-2.9521,-2.9527,-2.9511,-2.9511,-2.9548,-2.9446,-2.9588,-2.9604,-2.9634,-2.9659,-2.9675,-2.9699,-2.9494,-2.9494,-2.9494,-2.9633,-2.9604,-2.9682,-2.9657,-2.9682,-2.9665,-2.9683,-2.968,-2.9644,-2.9678,-2.9691,-2.9817,-2.9847,-2.9859,-2.9885,-2.9716,-2.9717,-2.9717,-2.9717,-2.9796,-2.9841,-2.9791,-2.9848,-2.9817,-2.9865,-2.9852,-2.9824,-2.9864,-2.9805,-2.983,-2.9769,-2.9882,-2.9902,-2.9723,-2.9722,-2.9721,-2.9721,-2.972,-2.9919,-2.9936,-2.9935,-2.9968,-2.9997,-2.9968,-3.0009,-2.9979,-2.9951,-2.9976,-2.9986,-2.9984,-2.9979,-2.9983,-2.9983,-2.9983,-2.9984,-2.9984,-2.9984,-3.0047,-3.0044,-3.0082,-3.0092,-3.0104,-3.0116,-3.0099,-3.011,-3.0115,-3.0089,-3.0089,-3.005,-2.9898,-2.9861,-2.9991,-2.999,-2.9989,-2.9988,-2.9988,-3.0223,-3.0178,-3.0237,-3.0249,-3.0258,-3.0289,-3.025,-3.0275,-3.0279,-3.03,-3.0255,-3.0148,-3.0126,-3.0112,-3.0081,-3.0261,-3.0261,-3.0261,-3.0261,-3.0326,-3.0312,-3.0366,-3.0387,-3.0405,-3.0376,-3.0443,-3.043,-3.0411,-3.0412,-3.0381,-3.0337,-3.0325,-3.0311,-3.0293,-3.0263,-3.0485,-3.0485,-3.0485,-3.0433,-3.0419,-3.0482,-3.0462,-3.0467,-3.0472,-3.0534,-3.056,-3.0528,-3.0494,-3.0412,-3.0402,-3.0331,-3.0309,-3.0273,-3.0246,-3.0191,0,0]}]]